This demonstration page uses our WeatherBlox Daily Observations layout. Learn more.

Left ArrowRight Arrow

38.20091, -84.87328

Hourly Observations for August 24, 2022

Temp ( °F °C ) Dew Point ( °F °C ) Humidity (%) Winds ( mph kmh ) Pressure ( in mb ) Visibility ( mi km ) Precip ( " mm )
12:53 am 00:53 Partly Cloudy 65 18.3 62 16.7 90 90 Calm 30.01 1016 10 16 0.00 0.00
1:53 am 01:53 Mostly Cloudy 63 17.2 61 16.1 93 93 Calm 30.01 1016 10 16 0.00 0.00
2:53 am 02:53 Partly Cloudy 64 17.8 62 16.7 93 93 Calm 30.01 1016 10 16 0.00 0.00
3:53 am 03:53 Clear 63 17.2 60 15.6 90 90 Calm 30.01 1016 10 16 0.00 0.00
4:53 am 04:53 Clear 62 16.7 60 15.6 93 93 Calm 30.02 1017 10 16 0.00 0.00
5:53 am 05:53 Partly Cloudy 62 16.7 60 15.6 93 93 Calm 30.02 1017 10 16 0.00 0.00
6:53 am 06:53 Partly Cloudy 62 16.7 59 15 90 90 Calm 30.03 1017 10 16 0.00 0.00
7:53 am 07:53 Cloudy 63 17.2 60 15.6 90 90 Calm 30.05 1018 10 16 0.00 0.00
8:53 am 08:53 Sunny 68 20 62 16.7 81 81 Calm 30.06 1018 10 16 0.00 0.00
9:53 am 09:53 Sunny 74 23.3 63 17.2 69 69 Calm 30.07 1018 10 16 0.00 0.00
10:53 am 10:53 Sunny 78 25.6 61 16.1 56 56 ENE 5 7 30.07 1018 10 16 0.00 0.00
11:53 am 11:53 Sunny 80 26.7 60 15.6 51 51 Calm 30.07 1018 10 16 0.00 0.00
12:53 pm 12:53 Sunny 80 26.7 57 13.9 45 45 NNW 6 9 30.07 1018 10 16 0.00 0.00
1:53 pm 13:53 Sunny 83 28.3 60 15.6 46 46 Calm 30.06 1018 10 16 0.00 0.00
2:53 pm 14:53 Partly Cloudy 83 28.3 59 15 44 44 WNW 5 7 30.04 1017 10 16 0.00 0.00
3:53 pm 15:53 Sunny 81 27.2 58 14.4 45 45 Calm 30.04 1017 10 16 0.00 0.00
4:53 pm 16:53 Sunny 85 29.4 60 15.6 43 43 NNW 8 13 30.02 1017 10 16 0.00 0.00
5:53 pm 17:53 Sunny 84 28.9 60 15.6 45 45 NW 7 11 30.02 1017 10 16 0.00 0.00
6:53 pm 18:53 Sunny 82 27.8 61 16.1 49 49 NNW 6 9 30.02 1017 10 16 0.00 0.00
7:53 pm 19:53 Sunny 80 26.7 62 16.7 54 54 N 3 6 30.01 1016 10 16 0.00 0.00
8:53 pm 20:53 Clear 70 21.1 64 17.8 81 81 Calm 30.03 1017 10 16 0.00 0.00
9:53 pm 21:53 Partly Cloudy 69 20.6 63 17.2 81 81 Calm 30.04 1017 10 16 0.00 0.00
10:53 pm 22:53 Clear 66 18.9 63 17.2 90 90 Calm 30.05 1018 10 16 0.00 0.00
11:53 pm 23:53 Clear 66 18.9 63 17.2 90 90 NNW 3 6 30.05 1018 10 16 0.00 0.00

Powered by AerisWeather